This demonstration page uses our WeatherBlox Daily Observations layout. Learn more.

Left ArrowRight Arrow

Hourly Observations for June 8, 2018

Temp ( °F °C ) Dew Point ( °F °C ) Humidity (%) Winds ( mph kmh ) Pressure ( in mb ) Visibility ( mi km ) Precip ( " mm )
12:54 am 00:54 Clear 71 21.7 64 17.8 79 79 Calm 29.96 1015 10 16 0.00 0.00
1:54 am 01:54 Clear 65 18.3 62 16.7 90 90 N 6 9 29.96 1015 10 16 0.00 0.00
2:25 am 02:25 Mostly Clear 66 18.9 63 17.2 90 90 N 6 9 29.94 1014 10 16 0.00 0.00
2:54 am 02:54 Clear 67 19.4 63 17.2 87 87 NNW 5 7 29.95 1014 10 16 0.00 0.00
3:54 am 03:54 Clear 66 18.9 63 17.2 90 90 NNW 3 6 29.95 1014 10 16 0.00 0.00
4:54 am 04:54 Clear 63 17.2 62 16.7 97 97 Calm 29.95 1014 10 16 0.00 0.00
5:54 am 05:54 Clear 65 18.3 62 16.7 90 90 Calm 29.97 1015 10 16 0.00 0.00
6:54 am 06:54 Sunny 67 19.4 63 17.2 87 87 N 8 13 30.01 1016 8 13 0.00 0.00
7:54 am 07:54 Sunny 71 21.7 66 18.9 84 84 S 5 7 29.98 1015 8 13 0.00 0.00
8:54 am 08:54 Sunny 77 25 68 20 74 74 SSW 7 11 29.99 1016 10 16 0.00 0.00
9:54 am 09:54 Sunny 82 27.8 69 20.6 65 65 S 10 17 29.98 1015 10 16 0.00 0.00
10:54 am 10:54 Sunny 81 27.2 66 18.9 61 61 S 9 15 29.97 1015 10 16 0.00 0.00
11:54 am 11:54 Sunny 85 29.4 67 19.4 55 55 Calm 29.98 1015 10 16 0.00 0.00
12:54 pm 12:54 Sunny 87 30.6 67 19.4 51 51 VRB 6 9 29.96 1015 10 16 0.00 0.00
1:27 pm 13:27 Sunny 88 31.1 67 19.4 50 50 Calm 29.91 1013 10 16 0.00 0.00
1:54 pm 13:54 Sunny 87 30.6 67 19.4 51 51 SSW 6 9 29.96 1015 10 16 0.00 0.00
2:54 pm 14:54 Sunny 90 32.2 67 19.4 47 47 SE 10 17 29.94 1014 10 16 0.00 0.00
3:54 pm 15:54 Sunny 90 32.2 66 18.9 45 45 SSE 12 19 29.92 1013 10 16 0.00 0.00
4:54 pm 16:54 Sunny 90 32.2 67 19.4 47 47 SSE 7 11 29.91 1013 10 16 0.00 0.00
5:54 pm 17:54 Sunny 90 32.2 64 17.8 42 42 SSE 8 13 29.91 1013 10 16 0.00 0.00
6:54 pm 18:54 Sunny 89 31.7 64 17.8 43 43 SSE 12 19 29.90 1013 10 16 0.00 0.00
7:54 pm 19:54 Sunny 87 30.6 64 17.8 46 46 SSE 10 17 29.91 1013 10 16 0.00 0.00
8:54 pm 20:54 Sunny 84 28.9 65 18.3 53 53 SE 9 15 29.89 1012 10 16 0.00 0.00
9:54 pm 21:54 Clear 82 27.8 66 18.9 58 58 ESE 6 9 29.90 1012 10 16 0.00 0.00
10:54 pm 22:54 Clear 80 26.7 68 20 67 67 SE 6 9 29.91 1013 10 16 0.00 0.00
11:54 pm 23:54 Clear 80 26.7 67 19.4 64 64 SE 8 13 29.92 1013 10 16 0.00 0.00

Powered by AerisWeather